HVN113 VVDN-VVTS

Flight info

Callsign HVN113
Flight time 1h 9m
Altitude 36000
Route SADIN1G SADIN Q1 DOVIN DOVIN6D
Aircraft A321/M-SDE3FGHIRWY/LB1

Departure

Time 2026-04-22 16:06
Airport Da Nang International Airport (VVDN)

Arrival

Time 2026-04-22 17:15
Airport Tan Son Nhat International Airport (VVTS)
Time Latitude Longitude Altitude Speed Heading
2026-04-22 15:41 16.05226 108.20209 48 ft 0 kts 81°
2026-04-22 15:48 16.05226 108.20203 48 ft 2 kts 81°
2026-04-22 15:49 16.05223 108.20188 48 ft 2 kts 81°
2026-04-22 15:49 16.05221 108.20173 48 ft 2 kts 81°
2026-04-22 15:49 16.05219 108.20158 48 ft 2 kts 81°
2026-04-22 15:49 16.05216 108.20142 48 ft 2 kts 81°
2026-04-22 15:50 16.05214 108.20126 48 ft 2 kts 81°
2026-04-22 15:50 16.05212 108.20111 48 ft 2 kts 81°
2026-04-22 15:50 16.05211 108.20095 49 ft 2 kts 102°
2026-04-22 15:50 16.05216 108.20080 49 ft 2 kts 116°
2026-04-22 15:51 16.05224 108.20067 49 ft 2 kts 132°
2026-04-22 15:51 16.05235 108.20056 49 ft 2 kts 148°
2026-04-22 15:51 16.05249 108.20049 49 ft 2 kts 163°
2026-04-22 15:51 16.05257 108.20048 49 ft 1 kts 173°
2026-04-22 15:52 16.05262 108.20047 49 ft 0 kts 172°
2026-04-22 15:55 16.05242 108.20052 49 ft 8 kts 166°
2026-04-22 15:56 16.05168 108.20067 49 ft 17 kts 172°
2026-04-22 15:56 16.05040 108.20086 49 ft 25 kts 172°
2026-04-22 15:56 16.04859 108.20110 51 ft 24 kts 172°
2026-04-22 15:56 16.04698 108.20134 52 ft 22 kts 172°
2026-04-22 15:57 16.04544 108.20157 52 ft 21 kts 173°
2026-04-22 15:57 16.04398 108.20177 52 ft 20 kts 169°
2026-04-22 15:57 16.04257 108.20198 52 ft 19 kts 173°
2026-04-22 15:57 16.04125 108.20216 52 ft 18 kts 171°
2026-04-22 15:58 16.03996 108.20235 54 ft 17 kts 172°
2026-04-22 15:58 16.03879 108.20253 55 ft 16 kts 172°
2026-04-22 15:58 16.03767 108.20270 54 ft 16 kts 171°
2026-04-22 15:58 16.03644 108.20287 52 ft 17 kts 173°
2026-04-22 15:59 16.03523 108.20303 52 ft 17 kts 172°
2026-04-22 15:59 16.03402 108.20320 52 ft 17 kts 172°
2026-04-22 15:59 16.03287 108.20338 53 ft 16 kts 171°
2026-04-22 15:59 16.03182 108.20356 55 ft 14 kts 171°
2026-04-22 16:00 16.03083 108.20371 55 ft 14 kts 172°
2026-04-22 16:00 16.02981 108.20377 55 ft 14 kts 182°
2026-04-22 16:00 16.02942 108.20310 56 ft 11 kts 249°
2026-04-22 16:00 16.02931 108.20253 56 ft 6 kts 307°
2026-04-22 16:01 16.02952 108.20246 56 ft 0 kts 354°
2026-04-22 16:05 16.03145 108.20221 54 ft 64 kts 351°
2026-04-22 16:06 16.03821 108.20121 56 ft 128 kts 352°
2026-04-22 16:06 16.04897 108.19967 117 ft 174 kts 353°
2026-04-22 16:06 16.06082 108.19809 761 ft 169 kts 353°
2026-04-22 16:06 16.07254 108.19762 1345 ft 171 kts
2026-04-22 16:07 16.08455 108.19750 1837 ft 172 kts 358°
2026-04-22 16:07 16.09683 108.19720 2060 ft 182 kts 358°
2026-04-22 16:07 16.11011 108.19685 2285 ft 193 kts 358°
2026-04-22 16:07 16.12389 108.19649 2520 ft 205 kts 359°
2026-04-22 16:08 16.13883 108.19610 2768 ft 218 kts 359°
2026-04-22 16:08 16.15417 108.19776 2995 ft 230 kts 20°
2026-04-22 16:08 16.16780 108.20737 3177 ft 246 kts 52°
2026-04-22 16:08 16.17524 108.22374 3448 ft 258 kts 82°
2026-04-22 16:09 16.17569 108.24289 3835 ft 268 kts 91°
2026-04-22 16:09 16.17553 108.26241 4407 ft 273 kts 90°
2026-04-22 16:09 16.17559 108.28250 5026 ft 277 kts 89°
2026-04-22 16:09 16.17577 108.30252 5653 ft 280 kts 89°
2026-04-22 16:10 16.17600 108.32293 6278 ft 284 kts 88°
2026-04-22 16:10 16.17625 108.34363 6912 ft 287 kts 90°
2026-04-22 16:10 16.17480 108.35740 7303 ft 291 kts 105°
2026-04-22 16:10 16.15975 108.38045 7868 ft 294 kts 143°
2026-04-22 16:11 16.14106 108.38905 7970 ft 292 kts 171°
2026-04-22 16:11 16.12074 108.38978 7987 ft 291 kts 181°
2026-04-22 16:11 16.10041 108.38948 7983 ft 291 kts 181°
2026-04-22 16:11 16.07998 108.38941 8018 ft 294 kts 180°
2026-04-22 16:12 16.05924 108.38953 8474 ft 299 kts 180°
2026-04-22 16:12 16.03823 108.38974 9188 ft 297 kts 180°
2026-04-22 16:12 16.01747 108.38999 9793 ft 300 kts 180°
2026-04-22 16:12 15.99641 108.39025 10324 ft 304 kts 180°
2026-04-22 16:13 15.97471 108.39053 10606 ft 318 kts 180°
2026-04-22 16:13 15.95186 108.39083 10864 ft 332 kts 180°
2026-04-22 16:13 15.92792 108.39114 11109 ft 346 kts 180°
2026-04-22 16:13 15.90343 108.39145 11372 ft 358 kts 180°
2026-04-22 16:14 15.87805 108.39175 11848 ft 363 kts 180°
2026-04-22 16:14 15.85274 108.39208 12373 ft 365 kts 180°
2026-04-22 16:14 15.82699 108.39239 12887 ft 367 kts 179°
2026-04-22 16:14 15.80111 108.39272 13381 ft 370 kts 179°
2026-04-22 16:15 15.77524 108.39305 13867 ft 373 kts 179°
2026-04-22 16:15 15.74903 108.39339 14318 ft 376 kts 179°
2026-04-22 16:15 15.72254 108.39373 14768 ft 379 kts 179°
2026-04-22 16:15 15.69594 108.39407 15230 ft 381 kts 179°
2026-04-22 16:16 15.66934 108.39442 15645 ft 384 kts 179°
2026-04-22 16:16 15.64236 108.39477 16066 ft 387 kts 179°
2026-04-22 16:16 15.61482 108.39513 16481 ft 389 kts 179°
2026-04-22 16:16 15.58754 108.39548 16881 ft 391 kts 179°
2026-04-22 16:17 15.55994 108.39471 17257 ft 394 kts 186°
2026-04-22 16:17 15.53269 108.38930 17645 ft 396 kts 196°
2026-04-22 16:17 15.50659 108.37929 18043 ft 398 kts 204°
2026-04-22 16:17 15.48095 108.36728 18408 ft 400 kts 205°
2026-04-22 16:18 15.45540 108.35499 18748 ft 403 kts 205°
2026-04-22 16:18 15.42990 108.34273 19116 ft 406 kts 204°
2026-04-22 16:18 15.40393 108.33033 19479 ft 408 kts 204°
2026-04-22 16:18 15.37795 108.31798 19830 ft 410 kts 204°
2026-04-22 16:19 15.35193 108.30566 20172 ft 412 kts 204°
2026-04-22 16:19 15.32574 108.29328 20510 ft 414 kts 204°
2026-04-22 16:19 15.29897 108.28064 20855 ft 416 kts 203°
2026-04-22 16:19 15.27267 108.26823 21185 ft 418 kts 203°
2026-04-22 16:20 15.24597 108.25564 21502 ft 420 kts 203°
2026-04-22 16:20 15.21904 108.24293 21805 ft 422 kts 203°
2026-04-22 16:20 15.19215 108.23025 22105 ft 424 kts 203°
2026-04-22 16:20 15.16506 108.21749 22410 ft 426 kts 203°
2026-04-22 16:21 15.13790 108.20470 22704 ft 429 kts 203°
2026-04-22 16:21 15.11056 108.19202 22999 ft 430 kts 201°
2026-04-22 16:21 15.08212 108.18236 23290 ft 431 kts 192°
2026-04-22 16:21 15.05222 108.17696 23589 ft 430 kts 184°
2026-04-22 16:22 14.99210 108.17473 24171 ft 433 kts 179°
2026-04-22 16:22 14.96145 108.17425 24433 ft 436 kts 179°
2026-04-22 16:22 14.93107 108.17374 24705 ft 438 kts 179°
2026-04-22 16:23 14.86961 108.17258 25223 ft 442 kts 179°
2026-04-22 16:23 14.83855 108.17193 25475 ft 444 kts 179°
2026-04-22 16:23 14.80739 108.17126 25724 ft 446 kts 179°
2026-04-22 16:24 14.77606 108.17058 25980 ft 448 kts 180°
2026-04-22 16:24 14.71294 108.16920 26497 ft 452 kts 180°
2026-04-22 16:24 14.68154 108.16850 26740 ft 454 kts 180°
2026-04-22 16:25 14.64976 108.16779 26975 ft 456 kts 180°
2026-04-22 16:25 14.58544 108.16637 27421 ft 460 kts 180°
2026-04-22 16:25 14.55330 108.16567 27634 ft 463 kts 180°
2026-04-22 16:26 14.52101 108.16496 27845 ft 465 kts 180°
2026-04-22 16:26 14.48807 108.16424 28072 ft 467 kts 180°
2026-04-22 16:26 14.45557 108.16354 28292 ft 469 kts 180°
2026-04-22 16:26 14.42285 108.16281 28531 ft 470 kts 180°
2026-04-22 16:27 14.38985 108.16209 28751 ft 472 kts 180°
2026-04-22 16:27 14.35684 108.16138 28963 ft 474 kts 180°
2026-04-22 16:27 14.32349 108.16066 29189 ft 475 kts 180°
2026-04-22 16:27 14.29005 108.15992 29488 ft 474 kts 179°
2026-04-22 16:28 14.25696 108.15919 29815 ft 473 kts 179°
2026-04-22 16:28 14.22414 108.15846 30127 ft 472 kts 179°
2026-04-22 16:28 14.19124 108.15775 30421 ft 471 kts 179°
2026-04-22 16:28 14.15831 108.15704 30713 ft 471 kts 179°
2026-04-22 16:29 14.12514 108.15634 31009 ft 470 kts 179°
2026-04-22 16:29 14.09250 108.15565 31304 ft 469 kts 179°
2026-04-22 16:29 14.05964 108.15495 31595 ft 468 kts 179°
2026-04-22 16:29 14.02698 108.15426 31871 ft 467 kts 179°
2026-04-22 16:30 14.00519 108.15380 32051 ft 467 kts 179°
2026-04-22 16:30 13.96143 108.15284 32407 ft 466 kts 179°
2026-04-22 16:30 13.92886 108.15211 32676 ft 466 kts 179°
2026-04-22 16:30 13.89657 108.15139 32973 ft 465 kts 179°
2026-04-22 16:31 13.86326 108.15065 33301 ft 464 kts 179°
2026-04-22 16:31 13.83076 108.14993 33638 ft 463 kts 179°
2026-04-22 16:31 13.79836 108.14922 33975 ft 461 kts 179°
2026-04-22 16:31 13.76650 108.14853 34295 ft 460 kts 179°
2026-04-22 16:32 13.73397 108.14782 34550 ft 460 kts 179°
2026-04-22 16:32 13.70174 108.14711 34752 ft 461 kts 179°
2026-04-22 16:32 13.66951 108.14640 34948 ft 462 kts 179°
2026-04-22 16:32 13.63757 108.14571 35147 ft 462 kts 179°
2026-04-22 16:33 13.60517 108.14500 35341 ft 463 kts 179°
2026-04-22 16:33 13.57255 108.14429 35512 ft 464 kts 179°
2026-04-22 16:33 13.54043 108.14359 35678 ft 464 kts 179°
2026-04-22 16:33 13.50779 108.14288 35846 ft 465 kts 179°
2026-04-22 16:34 13.44281 108.14148 35907 ft 466 kts 179°
2026-04-22 16:34 13.37754 108.14007 35908 ft 466 kts 180°
2026-04-22 16:35 13.31208 108.13858 35912 ft 467 kts 180°
2026-04-22 16:35 13.24703 108.13696 35918 ft 466 kts 180°
2026-04-22 16:36 13.18184 108.13538 35922 ft 466 kts 180°
2026-04-22 16:36 13.11629 108.13380 35921 ft 466 kts 180°
2026-04-22 16:37 13.05160 108.13226 35920 ft 466 kts 180°
2026-04-22 16:37 12.98609 108.13070 35919 ft 466 kts 180°
2026-04-22 16:38 12.92090 108.12913 35912 ft 466 kts 180°
2026-04-22 16:38 12.85547 108.12756 35904 ft 466 kts 180°
2026-04-22 16:39 12.78986 108.12600 35905 ft 466 kts 180°
2026-04-22 16:39 12.72444 108.12445 35910 ft 466 kts 180°
2026-04-22 16:40 12.65854 108.12290 35909 ft 466 kts 180°
2026-04-22 16:41 12.56071 108.12089 35913 ft 466 kts 180°
2026-04-22 16:41 12.49506 108.11959 35921 ft 465 kts 180°
2026-04-22 16:42 12.42978 108.11829 35933 ft 465 kts 180°
2026-04-22 16:42 12.36438 108.11698 35952 ft 464 kts 180°
2026-04-22 16:43 12.29921 108.11569 35970 ft 464 kts 180°
2026-04-22 16:43 12.23389 108.11440 35993 ft 465 kts 180°
2026-04-22 16:44 12.16884 108.11311 36001 ft 465 kts 180°
2026-04-22 16:44 12.10281 108.11182 36007 ft 464 kts 180°
2026-04-22 16:45 12.03775 108.11053 36014 ft 464 kts 180°
2026-04-22 16:45 11.97292 108.11430 36021 ft 461 kts 168°
2026-04-22 16:46 11.91182 108.13451 36016 ft 458 kts 152°
2026-04-22 16:46 11.85833 108.16980 36009 ft 455 kts 137°
2026-04-22 16:47 11.81274 108.21581 36008 ft 453 kts 132°
2026-04-22 16:47 11.77548 108.25454 36003 ft 454 kts 135°
2026-04-22 16:48 11.71881 108.30260 35988 ft 455 kts 142°
2026-04-22 16:48 11.66616 108.33906 35974 ft 455 kts 144°
2026-04-22 16:49 11.61317 108.37498 35960 ft 454 kts 144°
2026-04-22 16:49 11.55920 108.40896 35948 ft 455 kts 149°
2026-04-22 16:50 11.50170 108.43713 35934 ft 456 kts 156°
2026-04-22 16:50 11.44236 108.46130 35920 ft 456 kts 156°
2026-04-22 16:51 11.38319 108.48517 35904 ft 456 kts 157°
2026-04-22 16:51 11.32291 108.50559 35886 ft 457 kts 163°
2026-04-22 16:52 11.26016 108.51949 35873 ft 458 kts 168°
2026-04-22 16:52 11.19725 108.53040 35862 ft 457 kts 169°
2026-04-22 16:53 11.13438 108.54105 35467 ft 452 kts 170°
2026-04-22 16:53 11.10311 108.54484 34473 ft 459 kts 173°
2026-04-22 16:53 11.07086 108.54694 33278 ft 469 kts 176°
2026-04-22 16:53 11.03788 108.54718 32226 ft 475 kts 180°
2026-04-22 16:54 11.00465 108.54617 31410 ft 477 kts 180°
2026-04-22 16:54 10.97189 108.54354 30570 ft 480 kts 189°
2026-04-22 16:54 10.94034 108.53196 29738 ft 484 kts 207°
2026-04-22 16:54 10.91343 108.51144 28888 ft 487 kts 225°
2026-04-22 16:55 10.89338 108.48358 28126 ft 486 kts 242°
2026-04-22 16:55 10.88224 108.45161 27561 ft 480 kts 258°
2026-04-22 16:55 10.88034 108.41805 26935 ft 476 kts 275°
2026-04-22 16:55 10.88529 108.38495 26393 ft 470 kts 278°
2026-04-22 16:56 10.89006 108.35232 25890 ft 464 kts 279°
2026-04-22 16:56 10.89506 108.32005 25391 ft 458 kts 279°
2026-04-22 16:56 10.89976 108.28857 24909 ft 452 kts 278°
2026-04-22 16:56 10.90424 108.25698 24426 ft 447 kts 278°
2026-04-22 16:57 10.90846 108.22594 23942 ft 442 kts 277°
2026-04-22 16:57 10.91252 108.19526 23475 ft 436 kts 277°
2026-04-22 16:57 10.91648 108.16480 23010 ft 432 kts 277°
2026-04-22 16:57 10.92039 108.13436 22539 ft 428 kts 277°
2026-04-22 16:58 10.92292 108.11455 22224 ft 425 kts 277°
2026-04-22 16:58 10.92794 108.07515 21614 ft 421 kts 277°
2026-04-22 16:58 10.93172 108.04538 21133 ft 418 kts 277°
2026-04-22 16:58 10.93543 108.01623 20660 ft 416 kts 277°
2026-04-22 16:59 10.93916 107.98692 20174 ft 414 kts 277°
2026-04-22 16:59 10.94282 107.95811 19682 ft 413 kts 277°
2026-04-22 16:59 10.94649 107.92924 19186 ft 411 kts 277°
2026-04-22 16:59 10.95015 107.90031 18686 ft 410 kts 277°
2026-04-22 17:00 10.95377 107.87174 18195 ft 408 kts 277°
2026-04-22 17:00 10.96095 107.81486 17227 ft 403 kts 277°
2026-04-22 17:00 10.96454 107.78640 16732 ft 401 kts 277°
2026-04-22 17:01 10.96805 107.75843 16233 ft 399 kts 277°
2026-04-22 17:01 10.97155 107.73064 15734 ft 398 kts 278°
2026-04-22 17:01 10.97507 107.70270 15229 ft 396 kts 278°
2026-04-22 17:01 10.97854 107.67518 14727 ft 394 kts 278°
2026-04-22 17:02 10.98204 107.64738 14216 ft 392 kts 278°
2026-04-22 17:02 10.98548 107.62001 13711 ft 391 kts 278°
2026-04-22 17:02 10.98889 107.59283 13206 ft 389 kts 278°
2026-04-22 17:02 10.99234 107.56537 12712 ft 387 kts 278°
2026-04-22 17:03 10.99574 107.53831 12216 ft 385 kts 278°
2026-04-22 17:03 10.99910 107.51154 11725 ft 383 kts 278°
2026-04-22 17:03 11.00244 107.48476 11442 ft 374 kts 278°
2026-04-22 17:03 11.00565 107.45903 11280 ft 362 kts 278°
2026-04-22 17:04 11.00878 107.43399 11130 ft 351 kts 278°
2026-04-22 17:04 11.01179 107.40981 10975 ft 341 kts 277°
2026-04-22 17:04 11.01257 107.38593 10773 ft 333 kts 266°
2026-04-22 17:04 11.00928 107.36315 10756 ft 318 kts 259°
2026-04-22 17:05 11.00467 107.34147 10719 ft 305 kts 257°
2026-04-22 17:05 10.99992 107.32016 10370 ft 305 kts 257°
2026-04-22 17:05 10.99533 107.29924 9963 ft 308 kts 257°
2026-04-22 17:05 10.99070 107.27774 9573 ft 309 kts 257°
2026-04-22 17:06 10.98615 107.25639 9192 ft 309 kts 258°
2026-04-22 17:06 10.98163 107.23509 8871 ft 306 kts 258°
2026-04-22 17:06 10.97718 107.21410 8636 ft 301 kts 258°
2026-04-22 17:06 10.97282 107.19350 8358 ft 298 kts 258°
2026-04-22 17:07 10.96847 107.17300 8065 ft 295 kts 258°
2026-04-22 17:07 10.96417 107.15270 7761 ft 292 kts 259°
2026-04-22 17:07 10.95988 107.13242 7462 ft 290 kts 259°
2026-04-22 17:07 10.95570 107.11262 7163 ft 288 kts 259°
2026-04-22 17:08 10.95148 107.09271 6858 ft 286 kts 259°
2026-04-22 17:08 10.94729 107.07288 6553 ft 284 kts 259°
2026-04-22 17:08 10.94312 107.05323 6245 ft 282 kts 259°
2026-04-22 17:08 10.93892 107.03344 5931 ft 280 kts 259°
2026-04-22 17:09 10.93484 107.01411 5635 ft 278 kts 259°
2026-04-22 17:09 10.93074 106.99475 5343 ft 276 kts 259°
2026-04-22 17:09 10.92806 106.98206 5155 ft 275 kts 259°
2026-04-22 17:09 10.92271 106.95682 4771 ft 272 kts 259°
2026-04-22 17:10 10.91877 106.93823 4486 ft 270 kts 258°
2026-04-22 17:10 10.91480 106.91949 4203 ft 268 kts 258°
2026-04-22 17:10 10.91080 106.90089 3917 ft 266 kts 255°
2026-04-22 17:10 10.90552 106.88284 3482 ft 271 kts 252°
2026-04-22 17:11 10.90004 106.86458 3013 ft 267 kts 251°
2026-04-22 17:11 10.89412 106.84683 2512 ft 264 kts 248°
2026-04-22 17:11 10.88775 106.82938 2157 ft 255 kts 246°
2026-04-22 17:11 10.88163 106.81313 1983 ft 240 kts 246°
2026-04-22 17:12 10.87582 106.79783 1966 ft 226 kts 245°
2026-04-22 17:12 10.87016 106.78293 1974 ft 224 kts 245°
2026-04-22 17:12 10.86453 106.76811 1969 ft 223 kts 245°
2026-04-22 17:12 10.85902 106.75349 1860 ft 212 kts 245°
2026-04-22 17:13 10.85389 106.73988 1597 ft 199 kts 245°
2026-04-22 17:13 10.84909 106.72716 1332 ft 188 kts 245°
2026-04-22 17:13 10.84453 106.71511 1065 ft 176 kts 245°
2026-04-22 17:13 10.84031 106.70393 835 ft 162 kts 246°
2026-04-22 17:14 10.83642 106.69351 582 ft 154 kts 246°
2026-04-22 17:14 10.83263 106.68333 439 ft 153 kts 246°
2026-04-22 17:14 10.82877 106.67333 277 ft 151 kts 246°
2026-04-22 17:14 10.82492 106.66320 84 ft 152 kts 246°
2026-04-22 17:15 10.82240 106.65656 34 ft 143 kts 247°
2026-04-22 17:15 10.81862 106.64667 28 ft 64 kts 251°
2026-04-22 17:15 10.81786 106.64488 25 ft 17 kts 244°
2026-04-22 17:15 10.81717 106.64394 25 ft 16 kts 225°
2026-04-22 17:16 10.81629 106.64317 25 ft 16 kts 218°
2026-04-22 17:16 10.81527 106.64297 25 ft 14 kts 161°
2026-04-22 17:16 10.81509 106.64304 25 ft 0 kts 160°
2026-04-22 17:16 10.81506 106.64304 25 ft 0 kts 160°
2026-04-22 17:17 10.81504 106.64305 25 ft 0 kts 160°
2026-04-22 17:18 10.81498 106.64307 25 ft 0 kts 160°
2026-04-22 17:18 10.81494 106.64309 25 ft 1 kts 160°
2026-04-22 17:18 10.81484 106.64313 25 ft 2 kts 160°
2026-04-22 17:18 10.81465 106.64320 25 ft 3 kts 160°
2026-04-22 17:19 10.81396 106.64346 25 ft 6 kts 159°
2026-04-22 17:19 10.81288 106.64387 25 ft 9 kts 158°
2026-04-22 17:20 10.81220 106.64515 25 ft 11 kts 101°
2026-04-22 17:20 10.81228 106.64691 25 ft 13 kts 70°
2026-04-22 17:21 10.81262 106.64784 25 ft 14 kts 69°
2026-04-22 17:21 10.81337 106.64983 25 ft 15 kts 69°
2026-04-22 17:22 10.81420 106.65197 26 ft 15 kts 74°
2026-04-22 17:22 10.81457 106.65299 28 ft 15 kts 69°
2026-04-22 17:22 10.81532 106.65503 28 ft 15 kts 67°
2026-04-22 17:23 10.81574 106.65609 28 ft 16 kts 70°
2026-04-22 17:23 10.81656 106.65833 28 ft 17 kts 68°
2026-04-22 17:23 10.81700 106.65948 28 ft 17 kts 69°
2026-04-22 17:24 10.81714 106.66045 28 ft 10 kts 135°
2026-04-22 17:24 10.81638 106.66050 29 ft 11 kts 190°
2026-04-22 17:24 10.81563 106.66043 29 ft 10 kts 185°
2026-04-22 17:24 10.81482 106.66036 29 ft 11 kts 185°
2026-04-22 17:25 10.81433 106.66030 30 ft 4 kts 187°
2026-04-22 17:25 10.81399 106.66026 31 ft 4 kts 186°
2026-04-22 17:25 10.81364 106.66024 31 ft 4 kts 178°
2026-04-22 17:25 10.81340 106.66029 32 ft 0 kts 142°
2026-04-22 17:26 10.81338 106.66033 32 ft 0 kts 115°
2026-04-22 17:26 10.81334 106.66044 32 ft 7 kts 110°
2026-04-22 17:26 10.81326 106.66113 34 ft 7 kts 95°
2026-04-22 17:26 10.81325 106.66120 34 ft 0 kts 95°
2026-04-22 17:30 10.81326 106.66117 34 ft 0 kts 95°
2026-04-22 17:30 10.81326 106.66116 34 ft 0 kts 95°